Holdrege, NE

2:42 PM CDT on May 21, 2018 (GMT -0500)
Brewster

Weather History for KHDE - March, 2012

Change the Weather History Date:

Saturday, March 3, 2012

  Actual Average Record
Temperature  
Mean Temperature 32 °F -  
Max Temperature 45 °F 44 °F 75 °F (1992)
Min Temperature 19 °F 23 °F -12 °F (1960)
Degree Days  
Heating Degree Days 33    
Moisture  
Dew Point 17 °F    
Average Humidity 56    
Maximum Humidity 80    
Minimum Humidity 27    
Precipitation  
Precipitation 0.00 in - - ()
Sea Level Pressure  
Sea Level Pressure 29.96 in    
Wind  
Wind Speed 10 mph (WNW)    
Max Wind Speed 24 mph    
Max Gust Speed 32 mph    
Visibility 10 miles    
Events      
Averages and records for this station are not official NWS values.
T = Trace of Precipitation, MM = Missing Value Source: NWS Daily Summary

Daily Weather History Graph

Daily Weather History Graph

Search for Another Location

Airport or City:

Astronomy

Mar. 03, 2012 Rise Set
Actual Time 7:07 AM CST 6:31 PM CST
Civil Twilight 6:39 AM CST 6:59 PM CST
Nautical Twilight 6:08 AM CST 7:30 PM CST
Astronomical Twilight 5:36 AM CST 8:02 PM CST
Moon 1:42 PM CST (3/3) 3:46 AM CST (3/3)
Length of Visible Light 12h 19m
Length of Day
11h 24m
Waxing Gibbous, 75% of the Moon is Illuminated
Mar 3
Waxing Gibbous
Mar 8
Full
Mar 14
Last Quarter
Mar 22
New
Mar 30
First Quarter

Hourly Weather History & Observations

Time (CST) Temp. Windchill Dew Point Humidity Pressure Visibility Wind Dir Wind Speed Gust Speed Precip Events Conditions
12:15 AM 25.0 °F 18.1 °F 17.1 °F 72% 29.99 in 10.0 mi West 5.8 mph - N/A   Clear
12:35 AM 25.3 °F 16.7 °F 16.7 °F 70% 29.99 in 10.0 mi West 8.1 mph - N/A   Clear
12:55 AM 24.3 °F 16.3 °F 16.7 °F 73% 29.98 in 10.0 mi West 6.9 mph - N/A   Clear
1:15 AM 25.0 °F 17.1 °F 16.7 °F 71% 29.99 in 10.0 mi West 6.9 mph - N/A   Clear
1:35 AM 24.8 °F 16.1 °F 16.5 °F 71% 29.99 in 10.0 mi West 8.1 mph - N/A   Clear
1:55 AM 23.4 °F 15.2 °F 15.8 °F 73% 29.99 in 10.0 mi West 6.9 mph - N/A   Clear
2:15 AM 22.1 °F 13.7 °F 15.4 °F 76% 29.98 in 10.0 mi West 6.9 mph - N/A   Clear
2:35 AM 22.1 °F 12.8 °F 15.4 °F 76% 29.98 in 10.0 mi West 8.1 mph - N/A   Clear
2:55 AM 23.7 °F 13.3 °F 15.8 °F 72% 29.98 in 10.0 mi West 10.4 mph - N/A   Clear
3:15 AM 23.9 °F 13.5 °F 15.8 °F 71% 29.97 in 10.0 mi West 10.4 mph - N/A   Clear
3:35 AM 25.3 °F 15.3 °F 15.8 °F 67% 29.97 in 10.0 mi West 10.4 mph - N/A   Clear
3:55 AM 23.9 °F 12.3 °F 15.6 °F 71% 29.97 in 10.0 mi West 12.7 mph - N/A   Clear
4:15 AM 23.4 °F 12.2 °F 15.8 °F 73% 29.97 in 10.0 mi West 11.5 mph - N/A   Clear
4:35 AM 22.6 °F 12.6 °F 15.4 °F 74% 29.98 in 10.0 mi West 9.2 mph - N/A   Clear
4:55 AM 21.7 °F 13.2 °F 14.9 °F 75% 29.98 in 10.0 mi WNW 6.9 mph - N/A   Clear
5:15 AM 21.9 °F 11.7 °F 15.3 °F 76% 29.98 in 10.0 mi WNW 9.2 mph - N/A   Clear
5:35 AM 23.9 °F 14.2 °F 16.2 °F 72% 29.98 in 10.0 mi WNW 9.2 mph - N/A   Clear
6:15 AM 20.8 °F 11.2 °F 14.9 °F 78% 29.98 in 10.0 mi West 8.1 mph - N/A   Clear
6:35 AM 20.5 °F 12.8 °F 14.9 °F 79% 29.99 in 10.0 mi West 5.8 mph - N/A   Clear
6:55 AM 19.4 °F 10.4 °F 14.0 °F 80% 29.99 in 10.0 mi West 6.9 mph - N/A   Clear
7:15 AM 19.8 °F 11.9 °F 14.2 °F 79% 29.99 in 10.0 mi WNW 5.8 mph - N/A   Clear
7:35 AM 19.4 °F 14.3 °F 13.8 °F 79% 29.99 in 10.0 mi WNW 3.5 mph - N/A   Clear
7:55 AM 21.7 °F 15.5 °F 16.0 °F 78% 30.00 in 10.0 mi WNW 4.6 mph - N/A   Clear
8:15 AM 23.7 °F 15.6 °F 17.4 °F 77% 30.00 in 10.0 mi West 6.9 mph - N/A   Clear
8:35 AM 25.7 °F 20.1 °F 18.3 °F 74% 30.01 in 10.0 mi WNW 4.6 mph - N/A   Clear
8:55 AM 27.9 °F 19.1 °F 19.4 °F 71% 30.01 in 10.0 mi WNW 9.2 mph - N/A   Clear
9:15 AM 29.8 °F 23.9 °F 19.9 °F 67% 30.00 in 10.0 mi WNW 5.8 mph - N/A   Clear
9:35 AM 32.4 °F 24.6 °F 20.8 °F 63% 30.00 in 10.0 mi NW 9.2 mph - N/A   Clear
9:55 AM 34.7 °F 26.4 °F 19.9 °F 55% 30.00 in 10.0 mi NW 11.5 mph 16.1 mph N/A   Clear
10:15 AM 35.8 °F 28.8 °F 19.4 °F 51% 30.00 in 10.0 mi WNW 9.2 mph - N/A   Clear
10:35 AM 38.5 °F 30.7 °F 18.7 °F 45% 29.99 in 10.0 mi NW 12.7 mph - N/A   Clear
11:15 AM 39.7 °F 30.6 °F 16.9 °F 40% 29.99 in 10.0 mi NW 18.4 mph 26.5 mph N/A   Scattered Clouds
11:35 AM 41.2 °F 32.4 °F 18.0 °F 39% 29.98 in 10.0 mi NW 18.4 mph 21.9 mph N/A   Clear
11:55 AM 41.5 °F 32.9 °F 18.1 °F 39% 29.98 in 10.0 mi NW 18.4 mph 24.2 mph N/A   Clear
12:15 PM 41.7 °F 32.9 °F 17.6 °F 38% 29.97 in 10.0 mi NW 19.6 mph 26.5 mph N/A   Clear
12:35 PM 43.5 °F 34.5 °F 15.8 °F 33% 29.97 in 10.0 mi NNW 23.0 mph 29.9 mph N/A   Clear
12:55 PM 43.9 °F 34.7 °F 15.1 °F 31% 29.96 in 10.0 mi NW 24.2 mph 32.2 mph N/A   Clear
1:15 PM 44.4 °F 36.6 °F 14.9 °F 30% 29.95 in 10.0 mi NW 18.4 mph 28.8 mph N/A   Clear
1:35 PM 44.6 °F 37.4 °F 13.5 °F 28% 29.95 in 10.0 mi NNW 16.1 mph 29.9 mph N/A   Scattered Clouds
1:55 PM 45.5 °F 37.8 °F 13.3 °F 27% 29.94 in 10.0 mi NNW 19.6 mph 28.8 mph N/A   Scattered Clouds
2:15 PM 44.4 °F 36.9 °F 14.0 °F 29% 29.93 in 10.0 mi NW 17.3 mph 26.5 mph N/A   Scattered Clouds
2:35 PM 44.6 °F 38.4 °F 13.3 °F 28% 29.93 in 10.0 mi NNW 12.7 mph 25.3 mph N/A   Scattered Clouds
2:55 PM 44.6 °F 37.8 °F 14.0 °F 29% 29.93 in 10.0 mi NNW 15.0 mph 26.5 mph N/A   Mostly Cloudy
3:15 PM 45.5 °F 37.6 °F 13.1 °F 27% 29.93 in 10.0 mi NW 20.7 mph 27.6 mph N/A   Mostly Cloudy
3:35 PM 45.1 °F 38.1 °F 14.5 °F 29% 29.93 in 10.0 mi NW 16.1 mph 26.5 mph N/A   Mostly Cloudy
3:55 PM 45.3 °F 38.4 °F 14.0 °F 28% 29.93 in 10.0 mi WNW 16.1 mph 25.3 mph N/A   Overcast
4:15 PM 45.0 °F 36.9 °F 15.6 °F 31% 29.93 in 10.0 mi WNW 20.7 mph 27.6 mph N/A   Overcast
4:35 PM 45.5 °F 37.1 °F 16.5 °F 31% 29.93 in 10.0 mi WNW 23.0 mph 27.6 mph N/A   Scattered Clouds
4:55 PM 45.3 °F 37.8 °F 17.2 °F 33% 29.93 in 10.0 mi WNW 18.4 mph 24.2 mph N/A   Clear
5:15 PM 44.4 °F 37.9 °F 17.6 °F 34% 29.93 in 10.0 mi WNW 13.8 mph 20.7 mph N/A   Clear
5:35 PM 41.7 °F 35.6 °F 19.8 °F 41% 29.94 in 10.0 mi West 10.4 mph - N/A   Scattered Clouds
5:55 PM 42.1 °F 35.2 °F 20.3 °F 42% 29.93 in 10.0 mi NW 12.7 mph 20.7 mph N/A   Mostly Cloudy
6:15 PM 40.3 °F 33.9 °F 20.1 °F 45% 29.93 in 10.0 mi WNW 10.4 mph - N/A   Scattered Clouds
6:35 PM 39.2 °F 34.2 °F 20.3 °F 47% 29.93 in 10.0 mi WNW 6.9 mph - N/A   Scattered Clouds
6:55 PM 36.7 °F 31.2 °F 20.5 °F 52% 29.93 in 10.0 mi West 6.9 mph - N/A   Scattered Clouds
7:15 PM 35.6 °F 29.9 °F 20.3 °F 54% 29.93 in 10.0 mi West 6.9 mph - N/A   Clear
7:35 PM 33.3 °F 28.9 °F 19.8 °F 58% 29.92 in 10.0 mi SW 4.6 mph - N/A   Clear
7:55 PM 32.9 °F 28.5 °F 20.3 °F 60% 29.92 in 10.0 mi WSW 4.6 mph - N/A   Clear
8:15 PM 32.2 °F 27.7 °F 20.5 °F 62% 29.92 in 10.0 mi WSW 4.6 mph - N/A   Clear
8:35 PM 32.2 °F 26.7 °F 21.2 °F 64% 29.92 in 10.0 mi SW 5.8 mph - N/A   Clear
8:55 PM 33.4 °F - 21.2 °F 61% 29.91 in 10.0 mi Calm Calm - N/A   Clear
9:15 PM 33.6 °F 28.4 °F 21.4 °F 61% 29.90 in 10.0 mi SW 5.8 mph - N/A   Mostly Cloudy
9:35 PM 35.6 °F 29.2 °F 22.1 °F 58% 29.90 in 10.0 mi SW 8.1 mph - N/A   Overcast
9:55 PM 36.7 °F 31.2 °F 22.1 °F 56% 29.90 in 10.0 mi SW 6.9 mph - N/A   Overcast
10:15 PM 36.9 °F 31.4 °F 21.7 °F 54% 29.90 in 10.0 mi WSW 6.9 mph - N/A   Overcast
10:35 PM 37.2 °F 31.9 °F 21.6 °F 53% 29.90 in 10.0 mi SW 6.9 mph - N/A   Overcast
10:55 PM 37.2 °F 31.9 °F 21.9 °F 54% 29.89 in 10.0 mi WSW 6.9 mph - N/A   Overcast
11:15 PM 37.0 °F 31.6 °F 22.1 °F 55% 29.89 in 10.0 mi SW 6.9 mph - N/A   Overcast
11:35 PM 37.6 °F 31.6 °F 22.5 °F 54% 29.89 in 10.0 mi SW 8.1 mph - N/A   Overcast
11:55 PM 37.4 °F 30.3 °F 22.6 °F 55% 29.89 in 10.0 mi SW 10.4 mph - N/A   Overcast